Weather History for Pinedale, WY

Change the Weather History Date:

Tuesday, July 16, 2013

  Actual Average (KBPI) Record (KBPI)
Temperature  
Mean Temperature 70 °F 62 °F  
Max Temperature 82 °F 81 °F 93 °F (2006)
Min Temperature 59 °F 44 °F 33 °F (2010)
Degree Days  
Heating Degree Days 0 3  
Month to date heating degree days 70  
Since 1 June heating degree days 375  
Since 1 July heating degree days 70  
Cooling Degree Days 6 1  
Month to date cooling degree days 8  
Year to date cooling degree days 10  
Since 1 June cooling degree days 10  
Growing Degree Days 20 (Base 50)    
Moisture  
Dew Point 48 °F    
Average Humidity 50    
Maximum Humidity 77    
Minimum Humidity 17    
Precipitation  
Precipitation 0.00 in 0.02 in 0.08 in (1986)
Month to date precipitation 0.32  
Year to date precipitation 3.58  
Sea Level Pressure  
Sea Level Pressure 30.29 in    
Wind  
Wind Speed 12 mph (NW)    
Max Wind Speed 24 mph    
Max Gust Speed 34 mph    
Visibility 10 miles    
Events Rain , Thunderstorm    
T = Trace of Precipitation, MM = Missing Value Source: NWS Daily Summary

Daily Weather History Graph

Daily Weather History Graph

Search for Another Location

Airport:

Trip Planner

Search our weather history database for the weather conditions in past years. The results will help you decide how hot, cold, wet, or windy it might be!

Date:

Astronomy

Jul. 16, 2013 Rise Set
Actual Time 5:55 AM MDT 8:54 PM MDT
Civil Twilight 5:21 AM MDT 9:28 PM MDT
Nautical Twilight 4:38 AM MDT 10:11 PM MDT
Astronomical Twilight 3:47 AM MDT 11:01 PM MDT
Moon 2:36 PM MDT (7/16) 12:31 AM MDT (7/16)
Length of Visible Light 16h 06m
Length of Day
14h 59m
First Quarter, 57% of the Moon is Illuminated
Jul 16
First Quarter
Jul 22
Full
Jul 29
Last Quarter
Aug 6
New
Aug 14
First Quarter

Hourly Weather History & Observations

Time (MDT) Temp. Dew Point Humidity Pressure Visibility Wind Dir Wind Speed Gust Speed Precip Events Conditions
1:04 PM 80.6 °F 46.4 °F 30% 30.25 in 10.0 mi NW 11.5 mph - N/A   Mostly Cloudy
1:05 PM 78.8 °F 46.4 °F 32% 30.25 in 10.0 mi NW 11.5 mph - N/A   Mostly Cloudy
1:10 PM 78.8 °F 46.4 °F 32% 30.25 in 10.0 mi NW 10.4 mph - N/A   Overcast
1:15 PM 78.8 °F 46.4 °F 32% 30.25 in 10.0 mi NW 12.7 mph - N/A Rain Light Rain
1:35 PM 78.8 °F 39.2 °F 24% 30.25 in 10.0 mi SW 8.1 mph 23.0 mph N/A   Light Drizzle
1:55 PM 80.6 °F 39.2 °F 23% 30.26 in 10.0 mi SW 17.3 mph - N/A   Mostly Cloudy
2:15 PM 82.4 °F 33.8 °F 17% 30.24 in 10.0 mi South 17.3 mph 27.6 mph N/A   Scattered Clouds
2:36 PM 80.6 °F 39.2 °F 23% 30.24 in 10.0 mi South 21.9 mph 34.5 mph N/A   Scattered Clouds
2:56 PM 80.6 °F 37.4 °F 21% 30.24 in 10.0 mi South 18.4 mph 27.6 mph N/A   Scattered Clouds
3:55 PM 80.6 °F 35.6 °F 20% 30.24 in 10.0 mi WSW 5.8 mph - N/A   Overcast
4:15 PM 78.8 °F 37.4 °F 23% 30.24 in 10.0 mi WNW 5.8 mph - N/A   Overcast
4:35 PM 73.4 °F 44.6 °F 36% 30.26 in 10.0 mi NW 16.1 mph 24.2 mph N/A   Overcast
4:56 PM 69.8 °F 51.8 °F 53% 30.26 in 10.0 mi NNW 15.0 mph - N/A Rain Light Rain
5:15 PM 69.8 °F 51.8 °F 53% 30.27 in 10.0 mi North 10.4 mph - N/A Rain Light Rain
5:35 PM 73.4 °F 46.4 °F 38% 30.26 in 10.0 mi North 5.8 mph - N/A   Overcast
5:55 PM 73.4 °F 46.4 °F 38% 30.27 in 10.0 mi East 3.5 mph - N/A   Mostly Cloudy
6:15 PM 71.6 °F 46.4 °F 41% 30.29 in 10.0 mi ESE 19.6 mph 24.2 mph N/A   Mostly Cloudy
6:35 PM 62.6 °F 55.4 °F 77% 30.27 in 5.0 mi ENE 24.2 mph 29.9 mph N/A Rain Light Rain
6:55 PM 62.6 °F 53.6 °F 72% 30.29 in 10.0 mi ENE 20.7 mph 24.2 mph N/A   Mostly Cloudy
7:15 PM 64.4 °F 53.6 °F 68% 30.30 in 10.0 mi NE 18.4 mph 25.3 mph N/A Thunderstorm Overcast
7:35 PM 64.4 °F 51.8 °F 64% 30.30 in 10.0 mi NE 15.0 mph 25.3 mph N/A   Overcast
7:55 PM 64.4 °F 51.8 °F 64% 30.31 in 10.0 mi ENE 5.8 mph - N/A   Overcast
8:15 PM 64.4 °F 51.8 °F 64% 30.31 in 10.0 mi NW 8.1 mph - N/A   Overcast
8:37 PM 64.4 °F 51.8 °F 64% 30.33 in 10.0 mi WSW 8.1 mph 19.6 mph N/A   Overcast
8:55 PM 64.4 °F 50.0 °F 59% 30.33 in 10.0 mi West 11.5 mph 18.4 mph N/A   Overcast
9:15 PM 64.4 °F 51.8 °F 64% 30.33 in 10.0 mi WNW 11.5 mph 18.4 mph N/A   Mostly Cloudy
9:35 PM 64.4 °F 51.8 °F 64% 30.34 in 10.0 mi WNW 6.9 mph - N/A   Scattered Clouds
9:55 PM 62.6 °F 51.8 °F 68% 30.34 in 10.0 mi WNW 6.9 mph - N/A   Scattered Clouds
10:15 PM 62.6 °F 51.8 °F 68% 30.34 in 10.0 mi NW 9.2 mph - N/A   Mostly Cloudy
10:35 PM 60.8 °F 51.8 °F 72% 30.33 in 10.0 mi NW 10.4 mph - N/A   Scattered Clouds
10:55 PM 60.8 °F 51.8 °F 72% 30.33 in 10.0 mi WNW 9.2 mph - N/A   Scattered Clouds
11:15 PM 60.8 °F 51.8 °F 72% 30.33 in 10.0 mi West 5.8 mph - N/A   Clear
11:36 PM 59.0 °F 51.8 °F 77% 30.33 in 10.0 mi WNW 4.6 mph - N/A   Clear
11:55 PM 59.0 °F 51.8 °F 77% 30.33 in 10.0 mi WNW 5.8 mph - N/A   Clear